User: anonymous   Login
Location: Hurstbourne Priors
(51.2000°N, 1.3667°W)
Time: 00:50:00
(UTC+00:00)
Language:

Okean 3 Rocket - Orbit

View from above orbital plane
View from above orbital plane
View from above satellite
View from above satellite

Ground track
Ground track

The orbit data is extracted from the following two-line orbital elements,

1 21398U 91039B   20188.48227911 +.00000067 +00000-0 +57381-5 0  9990
2 21398 082.5234 267.8861 0022731 124.5893 235.7469 14.79766311547809
Epoch (UTC): 06 July 2020 11:34:28
Eccentricity: 0.0022731
inclination: 82.5234°
perigee height: 614 km
apogee height: 646 km
right ascension of ascending node: 267.8861°
argument of perigee: 124.5893°
revolutions per day: 14.79766311
mean anomaly at epoch: 235.7469°
orbit number at epoch: 54780

The dashed part of the orbit path shows where the satellite is in the earth's shadow,  

DLR